Hourly Weather Aathal

Today, 21 April, Wednesday

Time Temperature Precipitation Wind Pressure Humidity
00:00 +4°C° 0 mm 1 mps 712 mmHg 89%
01:00 +3°C° 0 mm 1 mps 712 mmHg 90%
02:00 +3°C° 0 mm 1 mps 712 mmHg 90%
03:00 +3°C° 0 mm 1 mps 712 mmHg 89%
04:00 +3°C° 0 mm 1 mps 712 mmHg 89%
05:00 +4°C° 0 mm 1 mps 713 mmHg 86%
06:00 +5°C° 0 mm 1 mps 713 mmHg 83%
07:00 +4°C° 0 mm 0 mps 713 mmHg 80%
08:00 +7°C° 0 mm 0 mps 713 mmHg 72%
09:00 +9°C° 0 mm 0 mps 713 mmHg 64%
10:00 +13°C° 0 mm 1 mps 713 mmHg 56%
11:00 +14°C° 0 mm 1 mps 713 mmHg 52%
12:00 +15°C° 0 mm 1 mps 713 mmHg 49%
13:00 +18°C° 0 mm 1 mps 712 mmHg 46%
14:00 +16°C° 0.1 mm 1 mps 712 mmHg 46%
15:00 +16°C° 0.1 mm 1 mps 712 mmHg 46%
16:00 +16°C° 0.1 mm 1 mps 711 mmHg 46%
17:00 +14°C° 0.2 mm 1 mps 712 mmHg 57%
18:00 +12°C° 0.2 mm 1 mps 712 mmHg 69%
19:00 +10°C° 0.2 mm 1 mps 712 mmHg 80%
20:00 +9°C° 0.2 mm 1 mps 712 mmHg 84%
21:00 +8°C° 0.2 mm 1 mps 713 mmHg 87%
22:00 +7°C° 0.2 mm 1 mps 713 mmHg 91%
23:00 +6°C° 0.1 mm 1 mps 713 mmHg 91%

Tomorrow, 22 April, Thursday

Time Temperature Precipitation Wind Pressure Humidity
00:00 +6°C° 0.1 mm 1 mps 714 mmHg 91%
01:00 +5°C° 0.1 mm 1 mps 714 mmHg 91%
02:00 +5°C° 0 mm 1 mps 714 mmHg 91%
03:00 +5°C° 0 mm 1 mps 714 mmHg 91%
04:00 +5°C° 0 mm 1 mps 714 mmHg 92%
05:00 +5°C° 0 mm 1 mps 715 mmHg 90%
06:00 +5°C° 0 mm 0 mps 715 mmHg 89%
07:00 +6°C° 0 mm 0 mps 715 mmHg 88%
08:00 +8°C° 0 mm 0 mps 715 mmHg 83%
09:00 +10°C° 0 mm 1 mps 715 mmHg 77%
10:00 +12°C° 0 mm 1 mps 716 mmHg 72%
11:00 +12°C° 0.3 mm 2 mps 716 mmHg 71%
12:00 +13°C° 0.3 mm 2 mps 716 mmHg 70%
13:00 +12°C° 0.3 mm 3 mps 716 mmHg 70%
14:00 +12°C° 0.3 mm 3 mps 716 mmHg 71%
15:00 +11°C° 0.3 mm 3 mps 716 mmHg 73%
16:00 +12°C° 0.3 mm 2 mps 716 mmHg 75%
17:00 +10°C° 0.1 mm 2 mps 716 mmHg 77%
18:00 +9°C° 0.1 mm 2 mps 717 mmHg 80%
19:00 +8°C° 0.1 mm 2 mps 717 mmHg 83%
20:00 +7°C° 0 mm 2 mps 717 mmHg 86%
21:00 +6°C° 0 mm 1 mps 718 mmHg 89%
22:00 +5°C° 0 mm 1 mps 718 mmHg 92%
23:00 +4°C° 0 mm 1 mps 718 mmHg 91%

Day after tomorrow, 23 April, Friday

Time Temperature Precipitation Wind Pressure Humidity
00:00 +4°C° 0 mm 1 mps 718 mmHg 91%
01:00 +3°C° 0 mm 1 mps 718 mmHg 90%
02:00 +3°C° 0 mm 1 mps 718 mmHg 91%
03:00 +2°C° 0 mm 1 mps 718 mmHg 91%
04:00 +1°C° 0 mm 1 mps 718 mmHg 91%
05:00 +2°C° 0 mm 1 mps 719 mmHg 87%
06:00 +3°C° 0 mm 1 mps 719 mmHg 83%
07:00 +4°C° 0 mm 1 mps 719 mmHg 79%
08:00 +7°C° 0 mm 1 mps 719 mmHg 70%
09:00 +8°C° 0 mm 2 mps 719 mmHg 60%
10:00 +10°C° 0 mm 3 mps 719 mmHg 51%
11:00 +11°C° 0 mm 3 mps 719 mmHg 47%
12:00 +13°C° 0 mm 3 mps 719 mmHg 42%
13:00 +14°C° 0 mm 3 mps 718 mmHg 38%
14:00 +14°C° 0 mm 3 mps 718 mmHg 39%
15:00 +14°C° 0 mm 4 mps 718 mmHg 40%
16:00 +14°C° 0 mm 4 mps 718 mmHg 40%
17:00 +12°C° 0 mm 3 mps 718 mmHg 49%
18:00 +10°C° 0 mm 3 mps 718 mmHg 58%
19:00 +9°C° 0 mm 2 mps 719 mmHg 67%
20:00 +7°C° 0 mm 2 mps 719 mmHg 73%
21:00 +5°C° 0 mm 2 mps 719 mmHg 79%
22:00 +4°C° 0 mm 2 mps 719 mmHg 85%
23:00 +4°C° 0 mm 1 mps 719 mmHg 86%

24 April, Saturday

Time Temperature Precipitation Wind Pressure Humidity
00:00 +4°C° 0 mm 1 mps 719 mmHg 87%
01:00 +3°C° 0 mm 1 mps 719 mmHg 88%
02:00 +3°C° 0 mm 1 mps 719 mmHg 88%
03:00 +2°C° 0 mm 1 mps 719 mmHg 88%
04:00 +2°C° 0 mm 1 mps 719 mmHg 88%
05:00 +2°C° 0 mm 0 mps 719 mmHg 84%
06:00 +3°C° 0 mm 0 mps 719 mmHg 79%
07:00 +4°C° 0 mm 0 mps 719 mmHg 74%
08:00 +7°C° 0 mm 1 mps 719 mmHg 67%
09:00 +10°C° 0 mm 1 mps 719 mmHg 59%
10:00 +12°C° 0 mm 2 mps 718 mmHg 51%
11:00 +14°C° 0 mm 2 mps 718 mmHg 48%
12:00 +15°C° 0 mm 2 mps 718 mmHg 44%
13:00 +17°C° 0 mm 2 mps 718 mmHg 40%
14:00 +17°C° 0 mm 2 mps 717 mmHg 40%
15:00 +17°C° 0 mm 3 mps 717 mmHg 40%
16:00 +17°C° 0 mm 3 mps 717 mmHg 41%
17:00 +15°C° 0 mm 2 mps 717 mmHg 51%
18:00 +13°C° 0 mm 2 mps 717 mmHg 62%
19:00 +9°C° 0 mm 2 mps 717 mmHg 73%
20:00 +8°C° 0 mm 2 mps 717 mmHg 78%
21:00 +8°C° 0 mm 1 mps 718 mmHg 83%
22:00 +6°C° 0 mm 1 mps 718 mmHg 88%
23:00 +6°C° 0 mm 1 mps 718 mmHg 89%

25 April, Sunday

Time Temperature Precipitation Wind Pressure Humidity
00:00 +5°C° 0 mm 1 mps 718 mmHg 90%
01:00 +5°C° 0 mm 1 mps 718 mmHg 91%
02:00 +4°C° 0 mm 1 mps 717 mmHg 91%
03:00 +4°C° 0 mm 1 mps 717 mmHg 91%
04:00 +4°C° 0 mm 1 mps 717 mmHg 91%
05:00 +4°C° 0 mm 1 mps 717 mmHg 88%
06:00 +5°C° 0 mm 1 mps 717 mmHg 84%
07:00 +6°C° 0 mm 1 mps 717 mmHg 80%
08:00 +8°C° 0 mm 1 mps 717 mmHg 72%
09:00 +10°C° 0 mm 1 mps 717 mmHg 64%
10:00 +12°C° 0 mm 2 mps 716 mmHg 56%
11:00 +14°C° 0 mm 2 mps 716 mmHg 51%
12:00 +16°C° 0 mm 2 mps 716 mmHg 46%
13:00 +17°C° 0 mm 3 mps 715 mmHg 41%
14:00 +18°C° 0 mm 3 mps 715 mmHg 41%
15:00 +18°C° 0 mm 3 mps 715 mmHg 41%
16:00 +18°C° 0 mm 3 mps 715 mmHg 42%
17:00 +16°C° 0 mm 2 mps 714 mmHg 52%
18:00 +14°C° 0 mm 2 mps 714 mmHg 62%
19:00 +12°C° 0 mm 2 mps 714 mmHg 72%
20:00 +9°C° 0 mm 2 mps 714 mmHg 77%
21:00 +9°C° 0 mm 1 mps 714 mmHg 81%
22:00 +8°C° 0 mm 1 mps 714 mmHg 86%
23:00 +7°C° 0 mm 1 mps 714 mmHg 87%

26 April, Monday

Time Temperature Precipitation Wind Pressure Humidity
00:00 +7°C° 0 mm 1 mps 714 mmHg 87%
01:00 +7°C° 0 mm 1 mps 713 mmHg 88%
02:00 +7°C° 0 mm 1 mps 713 mmHg 86%
03:00 +7°C° 0 mm 1 mps 713 mmHg 85%
04:00 +7°C° 0 mm 1 mps 713 mmHg 84%
05:00 +8°C° 0 mm 1 mps 713 mmHg 81%
06:00 +7°C° 0 mm 0 mps 713 mmHg 78%
07:00 +8°C° 0 mm 0 mps 713 mmHg 76%
08:00 +9°C° 0 mm 0 mps 713 mmHg 72%
09:00 +11°C° 0 mm 0 mps 713 mmHg 67%
10:00 +13°C° 0 mm 0 mps 713 mmHg 63%
11:00 +13°C° 0.1 mm 0 mps 712 mmHg 66%
12:00 +14°C° 0.1 mm 1 mps 712 mmHg 69%
13:00 +14°C° 0.1 mm 1 mps 711 mmHg 71%
14:00 +14°C° 0.7 mm 1 mps 711 mmHg 78%
15:00 +13°C° 0.7 mm 1 mps 711 mmHg 85%
16:00 +12°C° 0.7 mm 1 mps 710 mmHg 92%
17:00 +12°C° 0.2 mm 1 mps 710 mmHg 93%
18:00 +12°C° 0.2 mm 1 mps 709 mmHg 93%
19:00 +12°C° 0.2 mm 1 mps 709 mmHg 94%
20:00 +11°C° 0 mm 1 mps 709 mmHg 94%
21:00 +10°C° 0 mm 1 mps 709 mmHg 94%
22:00 +9°C° 0 mm 1 mps 708 mmHg 95%
23:00 +9°C° 0 mm 1 mps 708 mmHg 94%
Show more

We Need Your Consent

Meteoprog and our Service Providers may store and access personal data such as cookies, device identifiers or other similar technologies on your device and process such data to personalise content and ads, as well as provide social media features and to analyse the traffic.

  • Store and/or access information on your device

    Cookies, device identifiers or other information can be stored or accessed on your device for the purposes indicated above.

  • Personalised ads and content, ad and content measurement, audience insights, and products development

    Ads and content can be personalised based on a profile. More data can be added to better personalise ads and content. Ad and content performance can be measured. Insights about the audience who saw the ads and content can be derived. Such data can be used to develop or improve user’s experience, systems and software.

By clicking ‘I Agree’ you will allow the use of indicated cookies, device identifiers, web beacons or other similar technologies. Your settings can be changed in the browser on your device.

For certain purposes, legitimate interests may be relied on, rather than consent. You can read more about this in our Privacy and Cookie Policy.